AirNav   Duncan Aviation - Near you to keep you flying
 
 1128 users online  

49OH Sky Ranch Airport
West Jefferson, Ohio, USA

GOING TO WEST JEFFERSON?


FAA INFORMATION EFFECTIVE 11 AUGUST 2022

Location

FAA Identifier: 49OH
Lat/Long: 39-56-07.6250N 083-14-11.0350W
39-56.127083N 083-14.183917W
39.9354514,-83.2363986
(estimated)
Elevation: 920 ft. / 280 m (estimated)
From city: 2 miles SE of WEST JEFFERSON, OH
Time zone: UTC -4 (UTC -5 during Standard Time)
Zip code: 43119

Airport Operations

Airport use: Private use. Permission required prior to landing
Activation date: 11/2017
Control tower: no
ARTCC: INDIANAPOLIS CENTER
FSS: DAYTON FLIGHT SERVICE STATION
Attendance: 
Segmented circle: no

Airport Communications

WX AWOS-3 at TZR (5 nm SE): 135.925 (614-878-1722)
WX AWOS-3PT at UYF (10 nm W): 120.85 (740-852-2844)
WX ASOS at OSU (11 nm NE): 121.35 (614-451-2465)
WX AWOS-3 at LCK (16 nm SE): PHONE 614-492-2441
WX ASOS at CMH (16 nm E): 124.6 (614-338-4083)
WX AWOS-3 at MRT (18 nm N): 119.275 (937-644-2967)

Nearby radio navigation aids

VOR radial/distance  VOR name  Freq  Var
XUBr339/(27.3)YELLOW BUD VOR112.5005W
APEr253/32.5APPLETON VORTAC116.7006W

 
NDB name  Hdg/Dist  Freq  Var  ID
BOUTN353/7.123005WBU -... ..-
FULER197/8.551505WOS --- ...
COURT HOUSE026/21.341406WCSS -.-. ... ...

Airport Services

Runway Information

Runway 6/24

Dimensions: 3000 x 100 ft. / 914 x 30 m
Surface: turf, in fair condition
RUNWAY 6  RUNWAY 24
Latitude: 39-55.989333N39-56.264833N
Longitude: 083-14.450333W083-13.917500W
Elevation: 920.0 ft.920.0 ft.
Traffic pattern: leftleft

Airport Ownership and Management from official FAA records

Ownership: Privately-owned
Owner: RUSS MILLER
9291 W BROAD ST
GALLOWAY, OH 43119-6145
Manager: RUSS MILLER
9291 W BROAD ST
GALLOWAY, OH 43119
Phone 614-204-4588

Airport Operational Statistics

Aircraft based on the field: 2
Single engine airplanes: 2
    

Additional Remarks

FOR CD CTC INDIANAPOLIS ARTCC AT 317-247-2411.

Instrument Procedures

There are no published instrument procedures at 49OH.

Some nearby airports with instrument procedures:

KTZR - Bolton Field Airport (5 nm SE)
KUYF - Madison County Airport (10 nm W)
KOSU - Ohio State University Airport (11 nm NE)
KLCK - Rickenbacker International Airport (16 nm SE)
KCMH - John Glenn Columbus International Airport (16 nm E)
KMRT - Union County Airport (18 nm N)
 
Loc | Ops | Rwys | IFR | FBO | Links
Com | Nav | Svcs | Stats | Notes
Aerial photo
No photo
 
Airport distance calculator
Flying to Sky Ranch Airport? Find the distance to fly.

From to 49OH

Sunrise and sunset
Times for 14-Aug-2022
 Local
(UTC-4)
 Zulu
(UTC)
Morning civil twilight06:1610:16
Sunrise06:4510:45
Sunset20:3100:31
Evening civil twilight21:0001:00

Current date and time
Zulu (UTC)  15-Aug-2022 00:29:34
Local (UTC-4)  14-Aug-2022 20:29:34
 
METAR
KTZR 
6nm SE 
150010Z AUTO 10005KT 10SM OVC060 20/16 A2996 RMK AO2 T01950160
KUYF 
10nm W 
150015Z AUTO 09004KT 10SM SCT014 BKN033 OVC040 20/17 A2995 RMK AO2
KOSU 
11nm NE 
142353Z 12008KT 10SM OVC065 20/15 A2996 RMK AO2 SLP141 60000 T02000150 10217 20200 56002
KLCK 
16nm SE 
142355Z AUTO 10007KT 10SM OVC065 21/16 A2995 RMK AO2 LTG DSNT SE T02050160 10224 20205
KCMH 
17nm E 
142351Z 10007KT 10SM FEW030 BKN065 19/16 A2995 RMK AO2 SLP138 60008 T01890156 10206 20189 58002 $
KMRT 
18nm N 
150019Z AUTO 00000KT 4SM SCT050 BKN060 18/16 A2997 RMK AO1 P0001
TAF
KLCK 
16nm SE 
141728Z 1418/1518 13005KT P6SM VCSH BKN060 FM150300 09004KT P6SM BKN050 FM150800 05004KT P6SM SCT025 BKN040 TEMPO 1508/1512 BKN025 FM151600 04008KT P6SM SCT040
KCMH 
17nm E 
141728Z 1418/1518 13005KT P6SM VCSH BKN060 FM150300 09004KT P6SM BKN050 FM150800 05004KT P6SM SCT025 BKN040 TEMPO 1508/1512 BKN025 FM151600 04008KT P6SM SCT040
NOTAMs
Click for the latest NOTAMs
NOTAMs are issued by the DoD/FAA and will open in a separate window not controlled by AirNav.

 

 
 

Would you like to see your business listed on this page?

 If your business provides an interesting product or service to pilots, flight crews, aircraft, or users of the Sky Ranch Airport, you should consider listing it here.  To start the listing process, click on the button below
 
Add a business
 

Other Pages about Sky Ranch Airport

Update a link
 
Copyright © AirNav, LLC. All rights reserved. Privacy Policy  Contact